[ hide orbit diagram ]
For accurate long-term ephemerides, please instead use our Horizons system.This orbit viewer was implemented using two-body methods, and hence should not be used for determining accurate long-term trajectories (over several years or decades) or planetary encounter circumstances.
Orbital Elements at Epoch 2459000.5 (2020-May-31.0) TDB
Reference: JPL 15 (heliocentric ecliptic J2000)
Element | Value | Uncertainty (1-sigma) | Units |
e | .1769125863783071 | 5.011e-08 | |
a | 2.200422097219781 | 9.0498e-09 | au |
q | 1.811139732876651 | 1.0886e-07 | au |
i | 2.953417571686938 | 5.2852e-06 | deg |
node | 182.5286342294484 | 9.2828e-05 | deg |
peri | 208.3489311938183 | 9.4076e-05 | deg |
M | 88.91089654285607 | 1.7597e-05 | deg |
tp | 2458706.051116406575 (2019-Aug-10.55111641) | 5.7457e-05 | TDB |
period | 1192.222800751299 3.26 | 7.355e-06 2.014e-08 | d yr |
n | .301956983017889 | 1.8628e-09 | deg/d |
Q | 2.589704461562911 | 1.0651e-08 | au |
|
| | Orbit Determination Parameters
Additional Information
|
[ show covariance matrix ]
Physical Parameter Table
Parameter |
Symbol |
Value |
Units |
Sigma |
Reference |
Notes |
absolute magnitude |
H |
16.4 |
|
n/a |
MPO296712 |
|
diameter |
diameter |
1.350 |
km |
0.147 |
urn:nasa:pds:neowise_diameters_albedos::2.0[mainbelt] (http://adsabs.harvard.edu/abs/2011ApJ...741...68M) |
|
geometric albedo |
albedo |
0.222 |
|
0.085 |
urn:nasa:pds:neowise_diameters_albedos::2.0[mainbelt] (http://adsabs.harvard.edu/abs/2011ApJ...741...68M) |
|
|
85073 (1263 T-2) Discovered 1973-Sep-29 by van Houten, C. J., van Houten-Groeneveld, I., Gehrels, T. at Palomar |
Reference: 20040504/Numbers.arc | Last Updated: 2004-07-16 |
|
[ show close-approach data ]
|